[[{"header":{"parameterUnit":"m.s-1","parameterCategory":1,"la1":30.2991,"la2":30.254,"lo1":-89.0895,"lo2":-89.0444,"dy":0.0017,"dx":0.0017,"nx":28,"ny":28,"refTime":"2023-04-12T21:00:00:Z","depth":0,"parameterNumber":2,"parameterNumberName":"U-component_of_WINDS"},"data":[0,0,0,0,0,0,0,0,0,0,0,0,0,0,0,0,0,0,0,0,0,0,0,0,0,0,0,0,0,0,0,0,0,0,0,0,0,0,0,0,0,0,0,0,0,0,0,0,0,0,0,0,0,0,0,0,0,0,-4.5608,-4.5605,0,-4.5378,-4.5375,-4.5372,-4.5123,-4.5119,-4.5116,-4.5112,-4.4878,-4.4875,-4.4872,0,0,0,0,0,0,0,0,0,0,0,0,0,-4.5833,-4.5831,-4.5608,-4.5605,-4.5602,-4.5378,-4.5375,-4.5372,-4.5124,-4.5119,-4.5115,-4.5111,-4.4879,-4.4875,-4.4872,0,0,0,0,0,0,0,0,0,0,0,0,0,-4.5683,-4.583,-4.5608,-4.5451,-4.5435,-4.5379,-4.5375,-4.5371,-4.5125,-4.5119,-4.5114,-4.5109,-4.488,-4.4876,-4.4871,-4.4951,0,0,-4.4858,-4.4856,0,0,0,0,0,0,0,0,-4.5692,-4.5675,-4.5477,-4.5462,-4.5444,-4.5273,-4.5368,-4.523,-4.5126,-4.5242,-4.5112,-4.5106,-4.5014,-4.4998,-4.4967,-4.494,-4.493,-4.4858,-4.4855,-4.4853,-4.4852,0,0,0,0,0,0,0,-4.5703,-4.5683,-4.5517,-4.5475,-4.5454,-4.5393,-4.5365,-4.5341,-4.5161,-4.5232,-4.5213,-4.5189,-4.5004,-4.4972,-4.4959,-4.4927,-4.4858,-4.4854,-4.4851,-4.4849,-4.4956,-4.4961,0,0,0,0,0,0,-4.5737,-4.5694,-4.5524,-4.551,-4.5557,-4.5393,-4.5362,-4.5333,-4.5161,-4.5129,-4.5194,-4.5179,-4.4982,-4.4965,-4.495,-4.5033,-4.4853,-4.4849,-4.4846,-4.4951,-4.4957,-4.4963,0,0,0,0,0,0,-4.5742,-4.5724,-4.5533,-4.5597,-4.5568,-4.5395,-4.5364,-4.5332,-4.5299,-4.5132,-4.5099,-4.5194,-4.4977,-4.4956,-4.4953,-4.5022,-4.4847,-4.4843,-4.4944,-4.4953,-4.496,-4.5201,0,0,0,0,0,0,-4.575,-4.5727,-4.5756,-4.5599,-4.5565,-4.5541,-4.5368,-4.5331,-4.5292,-4.527,-4.5123,-4.5094,-4.4971,-4.4961,-4.4949,-4.5012,-4.484,-4.4937,-4.4948,-4.4958,-4.5186,-4.5216,-4.5242,0,0,0,0,0,-4.5759,-4.5833,-4.5759,-4.5739,-4.5597,-4.5545,-4.5525,-4.5382,-4.5299,-4.5326,-4.5219,-4.5099,-4.5016,-4.4963,-4.4947,-4.501,-4.4932,-4.4945,-4.4957,-4.5173,-4.521,-4.5241,0,0,0,0,0,0,-4.6002,-4.5809,-4.5725,-4.575,-4.5666,-4.5503,-4.5533,-4.5425,-4.5363,-4.5345,-4.517,-4.5139,-4.5157,-4.5082,-4.5027,-4.5079,-4.4957,-4.4967,-4.5127,-4.5161,-4.5188,-4.5206,-4.4836,0,0,0,0,0,-4.6058,-4.6032,-4.5865,-4.5903,-4.5865,-4.5708,-4.5679,-4.5576,-4.5482,-4.5445,-4.5337,-4.5251,-4.5205,-4.5178,-4.5127,-4.5174,-4.5139,-4.521,-4.5238,-4.5262,-4.5272,-4.5293,-4.5323,-4.5003,-4.5003,-4.5003,0,0,-4.6175,-4.6066,-4.606,-4.5949,-4.5872,-4.5849,-4.5679,-4.5661,-4.5643,-4.5442,-4.5432,-4.5351,-4.5243,-4.5266,-4.527,-4.5205,-4.5353,-4.5277,-4.5298,-4.5295,-4.5309,-4.5339,-4.5366,-4.5012,-4.501,-4.5009,0,0,-4.6375,-4.6291,-4.6313,-4.624,-4.6124,-4.6019,-4.6025,-4.5878,-4.5817,-4.5804,-4.5654,-4.5629,-4.5554,-4.5484,-4.5438,-4.5614,-4.5502,-4.5602,-4.5749,-4.5771,-4.5796,-4.5818,-4.5882,-4.5907,-4.5613,-4.5614,-4.5614,0,-4.6535,-4.6494,-4.6339,-4.6331,-4.6287,-4.6105,-4.6127,-4.6063,-4.5938,-4.5912,-4.584,-4.5743,-4.5657,-4.5662,-4.5705,-4.5674,-4.5676,-4.5618,-4.5805,-4.5825,-4.5843,-4.5902,-4.5926,-4.5627,-4.5626,-4.5624,-4.5623,0,-4.6696,-4.667,-4.6702,-4.6586,-4.6546,-4.6554,-4.6401,-4.6379,-4.628,-4.6183,-4.6174,-4.6064,-4.5988,-4.5981,-4.5884,-4.5973,-4.5936,-4.5838,-4.5711,-4.5889,-4.5942,-4.5963,-4.5646,-4.5641,-4.5637,-4.5634,0,0,-4.7043,-4.6842,-4.6856,-4.6802,-4.6662,-4.6639,-4.664,-4.6565,-4.655,-4.647,-4.6466,-4.6408,-4.6316,-4.6265,-4.6158,-4.6178,-4.6326,-4.6076,-4.6071,-4.6127,-4.6418,-4.6494,-4.6522,-4.625,-4.6254,-4.6257,-4.6427,0,-4.7219,-4.7207,-4.7069,-4.7097,-4.7072,-4.6899,-4.6899,-4.6814,-4.6723,-4.6689,-4.6588,-4.655,-4.6431,-4.64,-4.6411,-4.6306,-4.6382,-4.6291,-4.6246,-4.6246,-4.628,-4.6549,-4.6629,-4.6795,-4.6447,-4.645,-4.6452,0,-4.7423,-4.7356,-4.7383,-4.7243,-4.7227,-4.723,-4.7151,-4.7121,-4.7021,-4.6954,-4.6898,-4.6778,-4.6768,-4.665,-4.6636,-4.6577,-4.655,-4.6496,-4.6499,-4.649,-4.6361,-4.6549,-4.6844,-4.687,-4.6483,-4.6481,-4.6478,0,-4.7676,-4.7592,-4.7596,-4.7555,-4.7392,-4.7399,-4.7331,-4.7226,-4.7191,-4.7122,-4.7098,-4.703,-4.6993,-4.6943,-4.6808,-4.6734,-4.681,-4.668,-4.6755,-4.6759,-4.6779,-4.678,-4.7076,-4.6762,-4.6761,-4.6761,-4.6761,0,-4.7888,-4.7911,-4.7707,-4.7711,-4.7732,-4.7573,-4.7598,-4.7514,-4.7422,-4.7407,-4.7253,-4.7242,-4.7063,-4.7032,-4.6927,-4.6932,-4.6916,-4.6862,-4.6834,-4.6877,-4.6884,-4.6857,-4.6843,-4.6767,-4.6766,-4.6765,-4.6764,0,-4.8173,-4.8037,-4.8032,-4.7879,-4.7841,-4.7863,-4.7732,-4.7729,-4.763,-4.7612,-4.7599,-4.7443,-4.7398,-4.7258,-4.7179,-4.7108,-4.7146,-4.7091,-4.718,-4.7162,-4.7245,-4.724,-4.7535,-4.7566,-4.7233,-4.7236,-4.7239,0,-4.8318,-4.8331,-4.818,-4.8159,-4.8098,-4.8066,-4.8029,-4.7873,-4.7841,-4.773,-4.7741,-4.7684,-4.7631,-4.7568,-4.7448,-4.7387,-4.733,-4.7438,-4.732,-4.7363,-4.7333,-4.7335,-4.7336,-4.7464,-4.7469,-4.7472,-4.7475,0,-4.859,-4.8522,-4.8475,-4.8406,-4.8366,-4.8304,-4.8233,-4.8224,-4.805,-4.8022,-4.7975,-4.7934,-4.7853,-4.7799,-4.7719,-4.7649,-4.7535,-4.7514,-4.7528,-4.7572,-4.7623,-4.7598,-4.7251,-4.7507,-4.7504,-4.7502,-4.75,-4.7499,-4.8809,-4.8814,-4.8709,-4.8662,-4.8592,-4.8529,-4.8519,-4.8419,-4.8377,-4.8299,-4.8209,-4.8173,-4.8074,-4.7954,-4.7894,-4.7864,-4.7801,-4.7822,-4.7827,-4.7835,-4.7856,-4.7628,-4.7849,-4.7847,-4.7846,-4.7845,-4.7845,0,-4.9074,-4.8998,-4.8956,-4.8862,-4.8826,-4.872,-4.8636,-4.8613,-4.8583,-4.85,-4.8451,-4.8398,-4.8345,-4.8221,-4.8157,-4.8157,-4.8103,-4.8146,-4.8145,-4.8131,-4.7915,-4.7909,-4.8191,-4.8191,-4.8191,-4.8191,-4.8191,-4.8191,-4.9207,-4.921,-4.9131,-4.9098,-4.9021,-4.8984,-4.8946,-4.8888,-4.8821,-4.8768,-4.8724,-4.8643,-4.8544,-4.8472,-4.842,-4.8385,-4.8369,-4.843,-4.8378,-4.8179,-4.8146,-4.8115,-4.8108,-4.8427,-4.8428,-4.8596,-4.8598,-4.8599]},{"header":{"parameterUnit":"m.s-1","parameterCategory":1,"la1":30.2991,"la2":30.254,"lo1":-89.0895,"lo2":-89.0444,"dy":0.0017,"dx":0.0017,"nx":28,"ny":28,"refTime":"2023-04-12T21:00:00:Z","depth":0,"parameterNumber":3,"parameterNumberName":"V-component_of_WINDS"},"data":[0,0,0,0,0,0,0,0,0,0,0,0,0,0,0,0,0,0,0,0,0,0,0,0,0,0,0,0,0,0,0,0,0,0,0,0,0,0,0,0,0,0,0,0,0,0,0,0,0,0,0,0,0,0,0,0,0,0,-1.8813,-1.8814,0,-1.891,-1.8911,-1.8912,-1.8877,-1.8875,-1.8873,-1.8871,-1.8976,-1.898,-1.8985,0,0,0,0,0,0,0,0,0,0,0,0,0,-1.8601,-1.8605,-1.8813,-1.8814,-1.8816,-1.891,-1.8911,-1.8912,-1.8878,-1.8875,-1.8872,-1.887,-1.8974,-1.898,-1.8985,0,0,0,0,0,0,0,0,0,0,0,0,0,-1.8695,-1.8606,-1.8813,-1.8809,-1.881,-1.8909,-1.8911,-1.8913,-1.8878,-1.8875,-1.8872,-1.8869,-1.8972,-1.8979,-1.8986,-1.9096,0,0,-1.9008,-1.9011,0,0,0,0,0,0,0,0,-1.869,-1.8703,-1.8809,-1.881,-1.8811,-1.8878,-1.8874,-1.8975,-1.8879,-1.8853,-1.8871,-1.8867,-1.8946,-1.8955,-1.8981,-1.9101,-1.9106,-1.9009,-1.9013,-1.9016,-1.9019,0,0,0,0,0,0,0,-1.8683,-1.8698,-1.8852,-1.881,-1.8812,-1.8804,-1.8813,-1.8893,-1.8917,-1.8855,-1.8852,-1.8864,-1.8946,-1.8974,-1.8983,-1.9107,-1.9009,-1.9015,-1.902,-1.9023,-1.9321,-1.9324,0,0,0,0,0,0,-1.8676,-1.8693,-1.8848,-1.8854,-1.8741,-1.881,-1.8821,-1.886,-1.8916,-1.8921,-1.8867,-1.8862,-1.8963,-1.8975,-1.8987,-1.9119,-1.9016,-1.9023,-1.9027,-1.9317,-1.9321,-1.9325,0,0,0,0,0,0,-1.8671,-1.869,-1.8845,-1.8773,-1.8792,-1.8817,-1.8861,-1.8864,-1.8891,-1.8925,-1.8929,-1.8891,-1.8961,-1.8976,-1.9068,-1.9122,-1.9026,-1.9033,-1.9313,-1.9318,-1.9323,-1.9384,0,0,0,0,0,0,-1.8665,-1.8688,-1.8731,-1.8774,-1.8796,-1.8925,-1.8864,-1.8868,-1.8903,-1.8898,-1.8948,-1.8954,-1.896,-1.9058,-1.9076,-1.913,-1.9039,-1.9308,-1.9315,-1.9322,-1.9378,-1.9391,-1.9402,0,0,0,0,0,-1.8658,-1.8745,-1.8733,-1.8752,-1.8849,-1.8928,-1.894,-1.8944,-1.8908,-1.895,-1.8971,-1.8952,-1.9112,-1.9068,-1.9087,-1.9145,-1.9305,-1.9313,-1.9321,-1.9372,-1.9388,-1.9402,0,0,0,0,0,0,-1.8711,-1.8751,-1.8738,-1.8842,-1.8881,-1.8922,-1.8976,-1.8961,-1.9013,-1.9007,-1.901,-1.9022,-1.9116,-1.9139,-1.9089,-1.9253,-1.9203,-1.9216,-1.9235,-1.9251,-1.9263,-1.9257,-1.9045,0,0,0,0,0,-1.8733,-1.8793,-1.8826,-1.8915,-1.8934,-1.8951,-1.8986,-1.8985,-1.9026,-1.9044,-1.9071,-1.9114,-1.9173,-1.9213,-1.927,-1.9379,-1.939,-1.9428,-1.944,-1.945,-1.9462,-1.9521,-1.9538,-1.9352,-1.9352,-1.9352,0,0,-1.8784,-1.8813,-1.8851,-1.8926,-1.8956,-1.9018,-1.8966,-1.9035,-1.9081,-1.9055,-1.9143,-1.9164,-1.9211,-1.9312,-1.9358,-1.9334,-1.9515,-1.9461,-1.9468,-1.9475,-1.9531,-1.9549,-1.9564,-1.9357,-1.9356,-1.9355,0,0,-1.8906,-1.8934,-1.901,-1.904,-1.9086,-1.9095,-1.9113,-1.9155,-1.9168,-1.9255,-1.9236,-1.9291,-1.9394,-1.9428,-1.9459,-1.9588,-1.9573,-1.9607,-1.9673,-1.973,-1.9745,-1.9758,-1.9805,-1.9822,-1.9617,-1.9618,-1.9618,0,-1.8963,-1.9055,-1.9052,-1.9121,-1.9154,-1.9129,-1.9207,-1.9236,-1.9299,-1.9323,-1.9294,-1.942,-1.9451,-1.9558,-1.9589,-1.9615,-1.9636,-1.9603,-1.9742,-1.9756,-1.9768,-1.9813,-1.983,-1.9622,-1.9621,-1.9621,-1.962,0,-1.9123,-1.9186,-1.9242,-1.93,-1.9339,-1.9412,-1.9421,-1.9461,-1.9454,-1.9467,-1.9556,-1.959,-1.9652,-1.9677,-1.9673,-1.9784,-1.9768,-1.9741,-1.9692,-1.979,-1.9832,-1.9849,-1.9627,-1.9626,-1.9625,-1.9624,0,0,-1.9287,-1.9338,-1.9359,-1.9384,-1.9429,-1.9479,-1.9549,-1.9608,-1.9642,-1.9684,-1.9744,-1.9829,-1.9803,-1.9838,-1.9837,-1.9886,-1.9987,-1.9853,-1.9854,-1.9878,-2.0111,-2.0133,-2.0153,-1.9975,-1.9978,-1.9981,-2.0108,0,-1.9414,-1.9537,-1.9534,-1.9649,-1.9708,-1.9682,-1.9743,-1.9778,-1.9791,-1.9842,-1.9857,-1.9917,-1.9878,-1.9898,-1.9946,-1.9965,-2.0034,-1.9955,-2.0033,-2.0036,-2.0025,-2.0175,-2.02,-2.0318,-2.0124,-2.0127,-2.0129,0,-1.9581,-1.9625,-1.9745,-1.9779,-1.9803,-1.9859,-1.9911,-1.996,-1.9998,-2.0003,-2.004,-2.0029,-2.0101,-2.0046,-2.0146,-2.0092,-2.0123,-2.0136,-2.0141,-2.0151,-2.0091,-2.0192,-2.0356,-2.0375,-2.0155,-2.0153,-2.0151,0,-1.9689,-1.9779,-1.9862,-1.9884,-1.9926,-1.9965,-1.9984,-2.0019,-2.0053,-2.0098,-2.012,-2.0174,-2.0204,-2.0246,-2.025,-2.021,-2.0351,-2.0296,-2.0359,-2.0359,-2.0393,-2.0391,-2.0567,-2.0408,-2.0408,-2.0408,-2.0407,0,-1.9834,-1.9909,-1.9911,-1.9963,-2.0045,-2.004,-2.0122,-2.0138,-2.0168,-2.0222,-2.0202,-2.0254,-2.0255,-2.0308,-2.0311,-2.0393,-2.0407,-2.0414,-2.0415,-2.0418,-2.0417,-2.0441,-2.0434,-2.0412,-2.0411,-2.041,-2.041,0,-1.9971,-1.9976,-2.0065,-2.0095,-2.0104,-2.0163,-2.019,-2.0239,-2.0247,-2.0316,-2.0331,-2.0346,-2.0406,-2.0413,-2.0485,-2.0487,-2.0586,-2.0577,-2.0573,-2.0573,-2.0635,-2.063,-2.0835,-2.0861,-2.0683,-2.0685,-2.0686,0,-2.0065,-2.0121,-2.0156,-2.0189,-2.021,-2.0265,-2.0299,-2.0294,-2.0331,-2.0375,-2.0419,-2.0477,-2.0523,-2.0621,-2.0639,-2.0693,-2.0686,-2.0754,-2.0695,-2.0695,-2.0689,-2.0687,-2.0693,-2.0767,-2.0769,-2.077,-2.0772,0,-2.023,-2.0228,-2.0277,-2.0325,-2.0365,-2.0404,-2.044,-2.0469,-2.0469,-2.051,-2.057,-2.0606,-2.0676,-2.0734,-2.0786,-2.0807,-2.0791,-2.0789,-2.0807,-2.0812,-2.0808,-2.0812,-2.0607,-2.0786,-2.0784,-2.0783,-2.0783,-2.0782,-2.035,-2.0398,-2.0429,-2.0483,-2.0508,-2.0541,-2.0588,-2.06,-2.065,-2.0706,-2.07,-2.0767,-2.08,-2.0868,-2.0892,-2.0945,-2.0923,-2.0948,-2.0955,-2.0962,-2.0969,-2.0796,-2.0954,-2.0954,-2.0953,-2.0953,-2.0953,0,-2.0515,-2.0533,-2.0582,-2.0631,-2.0673,-2.0648,-2.0686,-2.0724,-2.0782,-2.0814,-2.0858,-2.0926,-2.0981,-2.1001,-2.1055,-2.1093,-2.1086,-2.1107,-2.1106,-2.1111,-2.0985,-2.0965,-2.1112,-2.1112,-2.1112,-2.1112,-2.1112,-2.1112,-2.0607,-2.0687,-2.0688,-2.078,-2.0796,-2.086,-2.0883,-2.0914,-2.0939,-2.1015,-2.106,-2.107,-2.1098,-2.1152,-2.1201,-2.1206,-2.1228,-2.1252,-2.1254,-2.1136,-2.112,-2.1105,-2.1087,-2.1257,-2.1257,-2.1376,-2.1377,-2.1378]}]]